Home   Weather   Feldbach   Past weeks

Flag for Austria Past Weather in Feldbach, Styria, Austria — Yesterday and Last 2 Weeks

Now
37 °F

Passing clouds.


Feels Like: N/A
Forecast: 35 / 55 °F
Wind: N/A

Location: Graz-Thalerhof-Flughafen

Current Time: Feb 28, 2017 at 12:03:54 am

Latest Report: Feb 27, 2017 at 11:00 pm


Visibility: 28 mi

Pressure: 29.76 "Hg

Humidity: 61%

Dew Point: 24 °F

Location of FeldbachLocation

Past Weather in Feldbach — Graph

°F

Feldbach Temperature Yesterday

Maximum temperature yesterday: 55 °F (at 4:00 pm)
Minimum temperature yesterday: 30 °F (at 7:00 am)
Average temperature yesterday: 42 °F

High & Low Weather Summary for the Past Weeks

 TemperatureHumidityPressure
High56 °F (Feb 23, 4:00 pm)100% (Feb 14, 12:00 pm)30.67 "Hg (Feb 14, 12:00 pm)
Low21 °F (Feb 14, 5:00 am)27% (Feb 25, 4:00 pm)29.61 "Hg (Feb 23, 11:00 pm)
Average37 °F80%30.21 "Hg
* Reported Feb 12 10:00 pm — Feb 27 10:00 pm, Feldbach, Weather by CustomWeather, © 2017

Note: Actual official high and low records may vary slightly from our data, if they occured in-between our weather recording intervals... More about our weather records

Advertising

Feldbach Weather History for the Previous 24 Hours

Scroll right to see more
 ConditionsComfort  
Time TempWeatherWind HumidityBarometerVisibility
10:00 pm
Mon, Feb 27
39 °FPassing clouds.N/A52%29.77 "Hg28 mi
9:00 pm48 °FPassing clouds.N/A35%29.76 "Hg31 mi
8:00 pm47 °FPassing clouds.3 mph39%29.77 "Hg19 mi
7:00 pm51 °FOvercast.6 mph32%29.76 "Hg31 mi
6:00 pm52 °FOvercast.5 mph33%29.77 "Hg31 mi
5:00 pm54 °FOvercast.3 mph34%29.78 "Hg31 mi
4:00 pm55 °FOvercast.3 mph42%29.79 "Hg25 mi
3:00 pm54 °FPartly sunny.N/A46%29.81 "Hg22 mi
2:00 pm53 °FPartly sunny.N/A44%29.84 "Hg28 mi
1:00 pm51 °FPartly sunny.N/A48%29.88 "Hg15 mi
12:00 pm48 °FPartly sunny.N/A48%29.92 "Hg22 mi
11:00 am44 °FPartly sunny.N/A62%29.96 "Hg11 mi
10:00 am40 °FOvercast.N/A68%29.98 "Hg9 mi
9:00 am36 °FOvercast.N/A80%30.01 "Hg7 mi
8:00 am31 °FPartly sunny.N/A88%30.04 "Hg7 mi
7:00 am30 °FOvercast.N/A90%30.04 "Hg14 mi
6:00 am31 °FOvercast.N/A88%30.05 "Hg12 mi
5:00 am33 °FOvercast.N/A85%30.05 "Hg9 mi
4:00 am33 °FOvercast.N/A84%30.06 "Hg10 mi
3:00 am32 °FOvercast.N/A85%30.07 "Hg7 mi
2:00 am34 °FOvercast.N/A80%30.08 "Hg11 mi
1:00 am35 °FPassing clouds.N/A80%30.08 "Hg15 mi
12:00 am35 °FOvercast.N/A79%30.10 "Hg19 mi
Weather by CustomWeather, © 2017

See weather overviewHow to use our weather pages